Location: Buckenweiler
(49.0667°N, 10.2500°E)
Time: 06:36:54
(UTC+00:00)

Meteor 2-10 Rocket - Pass Details

Date: 18 January 2026
Orbit: 733 x 881 km, 81.2° (Epoch: 17 February)

Event Time Altitude Azimuth Distance (km) Brightness Sun altitude
Rises 05:53:15 0° 228° (SW) 3,197 6.4 -11.6°
Reaches altitude 10° 05:55:57 10° 241° (WSW) 2,296 5.6 -11.2°
Maximum altitude 06:00:10 25° 296° (WNW) 1,545 4.5 -10.5°
Drops below altitude 10° 06:04:33 10° 351° (N) 2,385 5.8 -9.9°
Sets 06:07:25 0° 5° (N) 3,348 6.7 -9.4°
